Regional Weather Roundup
Issued by NWS Raleigh/Durham, NC

Home | Current Version | Previous Version | Text Only | Print | Product List | Glossary On
Versions: 1 2 3 4 5 6 7 8 9 10 11 12 13 14 15 16 17 18 19 20 21 22 23 24 25 26 27 28 29 30 31 32 33 34 35 36 37 38 39 40 41 42 43 44 45 46 47 48 49 50
920
ASUS42 KRAH 171210
RWRRAH
NORTH CAROLINA WEATHER ROUNDUP
NATIONAL WEATHER SERVICE RALEIGH NC
700 AM EST TUE JAN 17 2017

NOTE: "FAIR" INDICATES FEW OR NO CLOUDS BELOW 12,000 FEET WITH NO
SIGNIFICANT WEATHER AND/OR OBSTRUCTIONS TO VISIBILITY.

NCZ001-053-055-056-065-067-171300-
WESTERN NORTH CAROLINA

CITY           SKY/WX    TMP DP  RH WIND       PRES   REMARKS
ASHEVILLE      CLOUDY    53  49  86 S10       30.21S
JEFFERSON      CLOUDY    46  46  97 SE5       30.17S
MORGANTON      FOG       48  48 100 CALM      30.26S VSB 1/4
HICKORY        CLOUDY    49  49 100 S6        30.21R FOG
RUTHERFORDTON  FOG       49  49 100 S5        30.24S VSB 1/4
MOUNT AIRY     CLOUDY    49  47  93 CALM      30.22F FOG
BOONE          CLOUDY    48  47  95 CALM      30.19S
$$

NCZ021-022-025-041-071-084-088-171300-
CENTRAL NORTH CAROLINA

CITY           SKY/WX    TMP DP  RH WIND       PRES   REMARKS
CHARLOTTE      DRZL/FOG  50  49  96 S6        30.25S VSB 1/2
GREENSBORO     FOG       48  48 100 SW8       30.21F VSB 1
WINSTON-SALEM  CLOUDY    49  45  86 SW5       30.23R
RALEIGH-DURHAM DRZL/FOG  48  47  96 SW7       30.26S VSB 1/2
FORT BRAGG     CLOUDY    49  47  91 CALM      30.26S FOG
FAYETTEVILLE   CLOUDY    50  46  86 CALM      30.26R
BURLINGTON     CLOUDY    49  47  93 S6        30.22F
LAURINBURG     FOG       49  49 100 CALM      30.27S VSB 1/2
$$

NCZ011-015-027-028-043-044-047-080-103-171300-
NORTHEASTERN NORTH CAROLINA

CITY           SKY/WX    TMP DP  RH WIND       PRES   REMARKS
ROCKY MT-WILSO CLOUDY    48  46  93 CALM      30.27R
GREENVILLE     NOT AVBL
WASHINGTON       N/A     45  41  85 CALM      30.28R
ELIZABETH CITY CLOUDY    43  41  93 CALM      30.27S
MANTEO         CLOUDY    42  42 100 CALM      30.27S
CAPE HATTERAS  CLOUDY    48  44  86 CALM      30.26S
$$

NCZ078-087-090-091-093-098-101-171300-
SOUTHEASTERN NORTH CAROLINA

CITY           SKY/WX    TMP DP  RH WIND       PRES   REMARKS
LUMBERTON      FOG       49  49 100 CALM      30.26R VSB 1/4
GOLDSBORO      CLOUDY    45  45 100 CALM      30.25R
KINSTON        CLOUDY    45  43  93 CALM      30.28R
KENANSVILLE    CLEAR     43  43 100 CALM      30.27R
NEW BERN       MOCLDY    43  41  93 CALM      30.28R
CHERRY POINT   MOCLDY    46  43  89 CALM      30.27R
BEAUFORT       MOCLDY    46  43  89 NE3       30.26S
JACKSONVILLE   CLOUDY    47  46  97 E3        30.25S
WILMINGTON     CLOUDY    48  47  96 CALM      30.26R
$$





USA.gov is the U.S. government's official web portal to all federal, state and local government web resources and services.